SCP
0 0 0 0 0 0 0 0 0 0 0 0 0 0 0 0 0 0 0 0 0 0 0 0 0 0 0 0 0 0 0 0 0 0 0 0 0 0 0 0 0 0 0
0 0 0 0 0 0 0 0 0 0 0 0 0 0 0 0 0 0 0 0 0 0 0 0 0 0 0 0 0 0 0 0 0 0 0 0 0 0 0 0 0 0 0
0 0 0 0 0 0 0 0 0 0 0 0 0 0 0 0 0 0 0 0 0 0 0 0 0 0 0 0 0 0 0 0 0 0 0 0 0 0 0 0 0 0 0
0 0 0 0 0 0 0 0 0 0 0 0 0 0 0 0 0 0 0 0 0 0 0 0 0 0 0 0 0 0 0 0 0 0 0 0 0 0 0 0 0 0 0
0 0 0 0 0 0 0 0 0 0 0 0 0 0 0 0 0 0 0 0 0 0 0 0 0 0 0 0 0 0 0 0 0 0 0 0 0 0 0 0 0 0 0
0 0 0 0 0 0 0 0 0 0 0 0 0 0 0 0 0 0 0 0 0 0 0 0 0 0 0 0 0 0 0 0 0 0 0 0 0 0 0 0 0 0 0
0 0 0 0 0 0 0 0 0 0 0 0 0 0 0 0 0 0 0 0 0 0 0 0 0 0 0 0 0 0 0 0 0 0 0 0 0 0 0 0 0 0 0
0 0 0 0 0 0 0 0 0 0 0 0 0 0 0 0 0 0 0 0 0 0 0 0 0 0 0 0 0 0 0 0 0 0 0 0 0 0 0 0 0 0 0
0 0 0 0 0 0 0 0 0 0 0 0 0 0 0 0 0 0 0 0 0 0 0 0 0 0 0 0 0 0 0 0 0 0 0 0 0 0 0 0 0 0 0
0 0 0 0 0 0 0 0 0 0 0 0 0 0 0 0 0 0 0 0 0 0 0 0 0 0 0 0 0 0 0 0 0 0 0 0 0 0 0 0 0 0 0
0 0 0 0 0 0 0 0 0 0 0 0 0 0 0 0 0 0 0 0 0 0 0 0 0 0 0 0 0 0 0 0 0 0 0 0 0 0 0 0 0 0 0
0 0 0 0 0 0 0 0 0 0 0 0 0 0 0 0 0 0 0 0 0 0 0 0 0 0 0 0 0 0 0 0 0 0 0 0 0 0 0 0 0 0 0
0 0 0 0 0 0 0 0 0 0 0 0 0 0 0 0 0 0 0 0 0 0 0 0 0 0 0 0 0 0 0 0 0 0 0 0 0 0 0 0 0 0 0
0 0 0 0 0 0 0 0 0 0 0 0 0 0 0 0 0 0 0 0 0 0 0 0 0 0 0 0 0 0 0 0 0 0 0 0 0 0 0 0 0 0 0
0 0 0 0 0 0 0 0 0 0 0 0 0 0 0 0 0 0 0 0 0 0 0 0 0 0 0 0 0 0 0 0 0 0 0 0 0 0 0 0 0 0 0
0 0 0 0 0 0 0 0 0 0 0 0 0 0 0 0 0 0 0 0 0 0 0 0 0 0 0 0 0 0 0 0 0 0 0 0 0 0 0 0 0 0 0
0 0 0 0 0 0 0 0 0 0 0 0 0 0 0 0 0 0 0 0 0 0 0 0 0 0 0 0 0 0 0 0 0 0 0 0 0 0 0 0 0 0 0
0 0 0 0 0 0 0 0 0 0 0 0 0 0 0 0 0 0 0 0 0 0 0 0 0 0 0 0 0 0 0 0 0 0 0 0 0 0 0 0 0 0 0
0 0 0 0 0 0 0 0 0 0 0 0 0 0 0 0 0 0 0 0 0 0 0 0 0 0 0 0 0 0 0 0 0 0 0 0 0 0 0 0 0 0 0
0 0 0 0 0 0 0 0 0 0 0 0 0 0 0 0 0 0 0 0 0 0 0 0 0 0 0 0 0 0 0 0 0 0 0 0 0 0 0 0 0 0 0
0 0 0 0 0 0 0 0 0 0 0 0 0 0 0 0 0 0 0 0 0 0 0 0 0 0 0 0 0 0 0 0 0 0 0 0 0 0 0 0 0 0 0
0 0 0 0 0 0 0 0 0 0 0 0 0 0 0 0 0 0 0 0 0 0 0 0 0 0 0 0 0 0 0 0 0 0 0 0 0 0 0 0 0 0 0
0 0 0 0 0 0 0 0 0 0 0 0 0 0 0 0 0 0 0 0 0 0 0 0 0 0 0 0 0 0 0 0 0 0 0 0 0 0 0 0 0 0 0
0 0 0 0 0 0 0 0 0 0 0 0 0 0 0 0 0 0 0 0 0 0 0 0 0 0 0 0 0 0 0 0 0 0 0 0 0 0 0 0 0 0 0
0 0 0 0 0 0 0 0 0 0 0 0 0 0 0 0 0 0 0 0 0 0 0 0 0 0 0 0 0 0 0 0 0 0 0 0 0 0 0 0 0 0 0
0 0 0 0 0 0 0 0 0 0 0 0 0 0 0 0 0 0 0 0 0 0 0 0 0 0 0 0 0 0 0 0 0 0 0 0 0 0 0 0 0 0 0
Wind_Speed
1 1 2 4 5 6 6 6 6 6 7 7 6 6 7 9 10 12 12 13 13 12 12 13 13 13 14 14 15 16 16 15 15 15 14 14 13 12 11 10 10 8 11
1 1 3 4 5 6 7 8 7 7 7 7 7 7 8 10 11 12 12 12 12 12 12 13 14 14 14 14 15 15 15 14 14 14 13 12 12 11 10 11 10 7 11
2 1 2 5 5 6 7 8 8 7 7 8 8 8 10 11 11 12 12 12 12 12 13 15 14 14 14 14 14 14 15 14 14 14 12 7 8 11 10 10 10 11 11
2 2 3 5 5 6 7 7 7 7 8 8 8 8 10 11 12 13 13 13 13 14 14 15 15 15 14 14 14 14 14 14 14 13 6 5 6 10 10 10 10 10 11
3 2 3 6 6 7 7 7 7 7 7 7 8 9 10 11 12 13 13 14 14 14 14 14 14 14 14 13 13 13 14 14 13 9 5 5 5 9 10 10 10 10 10
3 1 2 6 6 7 7 7 7 7 7 7 8 8 10 11 12 13 13 13 13 14 14 14 14 13 13 13 12 12 13 13 10 7 5 5 4 9 10 10 10 10 9
2 1 2 6 6 6 6 7 7 7 7 8 8 9 10 11 12 12 12 13 13 13 13 14 14 13 12 12 12 12 12 12 7 6 5 4 5 9 10 9 9 9 9
2 2 1 5 6 6 6 6 6 6 8 8 9 9 10 11 12 12 12 12 13 12 13 13 13 12 11 11 10 10 10 10 8 6 5 4 7 8 8 8 9 9 9
2 2 2 2 3 5 5 6 6 7 7 8 8 9 11 12 11 11 11 11 11 11 11 11 11 10 10 9 8 8 9 9 6 4 5 4 7 8 8 9 9 9 8
2 2 2 2 2 2 2 5 5 6 7 7 8 9 11 11 10 10 9 9 10 10 10 9 9 8 8 8 7 7 8 8 5 4 3 4 7 7 8 8 8 8 8
1 1 1 2 2 2 2 3 3 4 5 6 6 9 8 5 5 6 7 8 8 8 8 8 7 7 6 5 6 6 6 3 4 3 3 5 7 7 7 7 8 7 7
1 1 1 1 1 2 2 2 3 3 4 4 4 5 4 4 3 4 5 7 7 7 7 6 5 5 4 2 3 4 3 4 3 2 3 6 7 7 7 7 7 7 7
2 2 2 1 1 1 1 2 2 2 3 3 4 4 4 3 3 3 2 3 3 4 3 3 3 2 2 2 2 2 2 3 2 2 3 6 7 7 8 8 7 7 7
2 2 2 2 1 1 1 1 1 2 2 2 2 3 2 2 2 2 2 2 2 1 2 2 1 2 2 2 2 2 2 2 2 1 2 6 6 7 8 8 8 8 7
3 2 2 2 2 1 1 1 1 1 1 1 1 2 2 2 2 2 1 1 1 1 1 1 1 1 1 1 2 2 2 2 2 2 1 5 6 6 7 8 8 7 7
3 3 2 3 2 2 2 1 1 1 1 1 1 1 1 2 1 1 1 1 1 1 1 1 1 1 0 1 1 1 1 2 2 1 1 3 6 6 7 7 7 8 7
4 3 3 3 2 2 2 2 1 1 1 1 1 0 1 2 1 1 1 0 0 1 1 1 1 1 1 1 1 1 1 1 2 2 1 1 2 4 6 6 7 7 7
4 4 3 4 3 3 2 2 1 1 1 1 1 0 1 1 2 1 1 0 0 1 1 1 1 1 1 1 1 0 0 1 1 2 1 1 1 2 3 6 6 7 8
5 4 4 3 4 3 3 2 1 1 1 0 0 0 0 1 1 1 1 0 1 1 1 1 1 1 1 0 1 0 0 1 1 2 2 2 2 2 2 4 6 7 7
4 4 4 3 3 3 2 2 1 2 1 1 0 0 0 1 1 1 1 0 1 1 1 1 1 1 1 0 1 1 0 1 1 2 2 2 2 2 3 3 3 4 6
4 4 4 4 3 3 2 2 1 0 0 0 0 0 0 0 1 1 1 0 1 1 1 1 1 1 1 1 1 1 1 1 1 1 2 2 2 2 2 3 3 2 3
5 5 5 4 4 3 3 2 2 1 1 0 1 1 1 0 1 1 1 1 1 1 1 1 2 1 1 1 2 1 1 2 2 1 1 2 2 2 2 3 3 3 3
5 6 6 5 4 3 3 2 2 2 2 1 1 1 1 0 0 1 1 1 1 2 2 2 2 2 1 1 1 2 1 1 2 2 1 0 1 1 2 2 3 3 3
7 5 5 5 4 3 4 3 3 2 2 1 0 0 1 1 1 1 1 1 1 1 1 2 2 2 2 1 1 1 1 2 1 1 2 1 1 1 1 2 2 3 3
6 5 5 4 4 3 4 4 4 2 1 1 1 1 1 2 2 1 1 1 1 1 1 1 1 2 2 2 2 1 1 1 1 1 1 2 2 1 1 2 2 2 2
5 5 5 5 4 4 4 4 4 4 3 2 1 0 0 1 1 1 1 1 1 1 1 1 1 2 1 2 1 1 2 1 2 2 2 1 2 2 1 1 2 2 2
Wind_Direction
293 320 101 78 78 81 84 85 84 88 91 95 103 113 128 135 133 132 132 135 137 139 140 146 143 141 140 140 141 141 140 141 141 141 140 142 142 141 140 139 133 130 131
157 127 119 93 85 82 85 89 84 86 88 93 95 100 116 126 128 126 125 126 130 134 136 137 138 141 139 139 139 139 140 140 140 139 140 142 143 140 138 138 136 134 135
107 116 124 102 92 88 84 85 84 84 87 90 92 98 110 117 122 122 121 120 122 126 129 133 134 133 132 134 136 137 138 140 139 139 139 135 137 137 138 138 137 137 137
112 99 111 109 101 93 86 81 81 83 86 88 93 101 108 116 119 118 119 118 115 114 118 121 124 125 125 128 131 136 140 140 139 136 129 128 135 140 141 140 139 140 137
93 87 109 110 104 94 85 81 81 84 86 90 96 102 108 114 116 117 116 117 115 114 113 115 120 121 122 122 126 133 137 137 136 129 118 119 126 143 145 145 146 145 139
92 94 121 113 107 98 89 85 78 79 84 95 100 103 107 112 115 115 117 118 116 114 111 112 119 118 120 119 119 125 130 130 126 122 120 125 134 149 150 151 151 149 146
102 78 114 118 112 103 94 88 83 78 84 95 100 108 113 116 117 117 116 115 115 114 113 112 116 118 117 118 120 121 127 129 124 127 130 135 148 154 153 155 156 151 153
104 62 79 123 117 107 98 91 86 85 89 92 98 109 117 119 118 116 115 115 114 114 113 115 117 117 117 117 116 120 129 133 132 136 135 142 156 154 152 152 155 157 158
77 63 41 75 108 113 106 96 88 85 84 86 92 103 112 114 114 114 114 115 115 115 116 119 119 121 121 122 123 127 135 139 130 138 147 152 163 159 157 157 160 161 159
65 63 52 46 52 58 77 98 94 88 85 85 90 101 106 109 109 110 110 115 117 118 120 122 121 121 120 124 127 131 134 131 126 135 142 160 163 160 156 155 153 154 154
84 30 58 55 54 60 58 77 76 82 77 75 77 92 91 82 86 98 109 115 115 116 119 121 119 115 111 110 117 126 129 120 132 139 151 169 170 172 166 162 158 158 157
194 213 137 105 71 56 67 53 41 49 49 50 51 59 68 75 84 94 102 107 112 116 116 113 110 106 99 88 106 117 116 129 134 151 166 176 181 181 176 171 168 167 168
177 160 148 138 98 71 55 60 48 44 46 49 54 57 64 68 73 69 69 77 84 94 89 88 85 82 92 93 92 101 121 135 146 167 177 185 188 187 184 181 179 180 180
141 158 145 142 127 103 85 79 72 63 55 53 51 58 71 76 76 72 72 70 70 73 78 76 84 79 94 108 117 125 132 138 147 162 183 194 195 196 194 191 190 192 194
163 171 161 157 152 143 129 131 107 91 87 75 55 59 85 93 89 76 63 66 75 86 101 97 91 85 92 117 137 145 149 145 157 176 195 203 201 204 204 203 198 199 203
177 180 164 160 165 149 145 146 132 121 112 96 75 69 100 106 98 85 70 58 60 99 100 104 119 115 94 105 126 133 146 147 158 173 193 213 211 209 212 215 210 211 214
178 172 165 165 152 150 157 161 137 141 127 121 136 111 123 126 123 112 99 70 21 87 93 90 72 75 82 91 96 125 151 163 171 183 197 205 220 224 221 225 226 221 223
165 165 175 170 151 154 154 147 123 131 137 152 153 156 152 139 147 138 135 199 155 115 120 121 96 76 67 99 105 127 160 167 188 187 197 212 216 237 234 232 231 231 231
171 167 167 161 153 153 143 133 123 109 125 146 133 159 178 144 152 144 143 171 129 118 135 146 112 126 117 118 137 142 196 199 213 208 213 225 226 231 236 238 235 237 236
166 162 162 157 150 139 120 101 81 64 51 73 102 205 177 168 143 125 133 137 118 112 116 128 125 104 123 134 90 34 315 253 226 223 227 221 222 229 238 241 241 248 244
160 162 169 164 159 142 133 137 132 153 329 14 320 289 224 161 144 142 169 137 132 148 167 146 139 116 82 112 93 14 340 299 231 239 229 220 232 237 240 240 239 241 251
180 181 179 177 170 164 158 156 150 142 135 175 340 8 20 118 152 163 168 164 154 152 147 150 151 137 103 106 130 102 355 350 347 285 226 223 240 234 242 246 243 235 239
183 187 187 184 175 171 152 121 96 75 50 36 12 350 338 40 123 144 152 147 150 159 173 179 165 159 167 115 128 142 149 250 317 339 340 293 253 221 246 256 250 245 236
192 183 177 171 166 161 149 140 136 144 163 202 231 327 355 21 45 89 110 127 128 132 158 186 168 160 159 168 133 132 163 166 172 328 344 353 332 289 282 275 270 258 243
183 175 172 163 164 162 155 153 147 150 169 143 84 55 18 12 24 48 78 93 105 113 125 133 127 146 162 167 166 155 150 123 161 178 287 325 346 324 291 277 276 274 261
173 167 166 165 173 167 164 165 162 166 159 140 129 112 8 356 3 16 70 81 82 92 113 125 120 129 147 149 153 154 161 171 188 180 220 273 301 307 303 286 277 274 275